Torna al catalogo

ETRSS-1

AttivoScienzaSSO
NORAD 44880·PAYLOAD·🇪🇹 Ethiopia
Questo nome del satellite non è ancora stato confermato da fonti ufficiali.

Lanciato Dec 20, 2019 da Taiyuan Satellite Launch Center

Loading…

Prossimi Passaggi (prossime 24 ore)

TLE

AggiornatoSource: Space-Track

Epoca: Sep 14, 2026, 14:02 UTC

1 44880U 19093B   26257.58537554  .00002491  00000-0  22542-3 0  9994
2 44880  97.7786 341.3222 0012774 112.9908 247.2662 14.96274499365422

Traccia ETRSS-1 in tempo reale con AllMySat

Download on the App Store